Regional Weather Roundup
Issued by NWS

Home | Current Version | Previous Version | Text Only | Print | Product List | Glossary On
Versions: 1 2 3 4 5 6 7 8 9 10 11 12 13 14 15 16 17 18 19 20 21 22 23 24 25 26 27 28 29 30 31 32 33 34 35 36 37 38 39 40 41 42 43 44 45 46 47 48 49 50
000
ASUS43 KFSD 231102
RWRSD

WEATHER ROUNDUP FOR SOUTH DAKOTA
NATIONAL WEATHER SERVICE SIOUX FALLS SD
600 AM CDT WED AUG 23 2017

NOTE: "FAIR" INDICATES FEW OR NO CLOUDS BELOW 12,000 FEET WITH NO
SIGNIFICANT WEATHER AND/OR OBSTRUCTIONS TO VISIBILITY.


SDZ001>005-009-010-012>017-231200-
NORTHWEST AND NORTH CENTRAL SOUTH DAKOTA

CITY           SKY/WX    TMP DP  RH WIND       PRES   REMARKS
BUFFALO          N/A     52  48  86 NE9       30.01F
FAITH            N/A     57  51  80 E8        30.05F
MOBRIDGE       CLEAR     55  47  74 E8        30.06F
$$

SDZ012>016-024>037-041>051-057-063-072>074-231200-
SOUTHWEST AND SOUTH CENTRAL SOUTH DAKOTA

CITY           SKY/WX    TMP DP  RH WIND       PRES   REMARKS
RAPID CTY ARPT CLEAR     56  48  74 SE5       30.05F
PIERRE         CLEAR     57  50  77 SE10      30.05F
CUSTER         CLEAR     60  48  64 VRB7      30.18F
ELLSWORTH AFB  CLEAR     59  49  69 W3        30.04F
PHILIP         CLEAR     54  51  90 E3        30.03F
PINE RIDGE     CLEAR     64  51  62 SW16G25   30.09R
SPEARFISH      FAIR      55  50  82 CALM      30.09S
WINNER         FAIR      58  54  86 SE7       30.09F
$$

SDZ004>011-016>023-039-040-231200-
NORTHEAST SOUTH DAKOTA

CITY           SKY/WX    TMP DP  RH WIND       PRES   REMARKS
ABERDEEN       PTCLDY    43  43 100 S5        30.11F
WATERTOWN      CLEAR     48  47  96 CALM      30.13S
SISSETON         N/A     47  45  93 CALM      30.10S
$$

SDZ017-020-022-023-036>040-048>070-231200-
SOUTHEAST SOUTH DAKOTA

CITY           SKY/WX    TMP DP  RH WIND       PRES   REMARKS
SIOUX FALLS    CLEAR     51  51 100 CALM      30.14S
HURON          CLEAR     52  50  93 E3        30.12S
CHAMBERLAIN    CLEAR     55  54  96 E3        30.10S
MITCHELL       CLEAR     53  51  93 SE5       30.13S
YANKTON        CLEAR     55  53  93 CALM      30.15R
$$

ABBREVIATIONS USED IN REMARKS
   TC - TEMPERATURE IN CELSIUS
  WCI - WIND CHILL INDEX
   HX - HEAT INDEX
  VSB - VISIBILITY





USA.gov is the U.S. government's official web portal to all federal, state and local government web resources and services.